shoulder
new_line
new_line
first
second
third
Al di la della Luna; Beyond the Moon; Astrophotography; Astrofotografia; Danilo Pivato
 
 
         
         
2010

Orbital Elements

Epoch 2010 Feb. 13.0 TT = JDT 2455240.5
T 2010 Feb. 22.70078 TT                                                                MPC
q   1.5980762              (2000.0)                         P                          Q
n   0.15351042        Peri.   41.78998     -0.99858470          -0.03599183
a   3.4544385       Node   136.10009     +0.01951285         -0.93282118
e   0.5373847        Incl.        3.23718     +0.04947569         -0.35853762
P   6.42
Returns in the future . 2022
 
         
         
2010.03.15
2010.03.18
2010.04.06
2010.04.10
Video of the 2010.04.10 [61,39Mb]
         
2010.04.16
2010.05.08
         
       
       
         
         
         

 

       
 
Since: 01/01/2004
 
       
 
Since: 01/11/2010